Hourly Data Report for October 04, 2004

TORONTO CITY
ONTARIO

43°40'00.000" N
79°24'00.000" W
112.50 m
6158355
71508
XTO

Download Data

Hourly Data (October 2004)
Hourly Data Report for October 4, 2004
TIME
LST
Temp Definition
°C
Dew Point Definition
°C
Rel Hum Definition
%
Precip. Amount Definition
mm

Wind Dir Definition
10's deg

Wind Spd Definition
km/h
Visibility Definition
km
Stn Press Definition
kPa
Hmdx Definition


Wind Chill Definition


Weather Definition


00:00 14.6 7.7 63   LegendMM LegendMM LegendMM 99.94     LegendNANA
01:00 15.1 7.4 60   LegendMM LegendMM LegendMM 99.86     LegendNANA
02:00 15.0 7.7 62   LegendMM LegendMM LegendMM 99.75     LegendNANA
03:00 15.1 9.7 70   LegendMM LegendMM LegendMM 99.67     LegendNANA
04:00 15.3 9.9 70   LegendMM LegendMM LegendMM 99.59     LegendNANA
05:00 14.8 8.7 67   LegendMM LegendMM LegendMM 99.54     LegendNANA
06:00 15.1 7.5 60   LegendMM LegendMM LegendMM 99.55     LegendNANA
07:00 15.4 4.8 49   LegendMM LegendMM LegendMM 99.58     LegendNANA
08:00 14.8 4.2 49   LegendMM LegendMM LegendMM 99.71     LegendNANA
09:00 11.8 4.9 63   LegendMM LegendMM LegendMM 99.89     LegendNANA
10:00 12.1 4.1 58   LegendMM LegendMM LegendMM 100.01     LegendNANA
11:00 13.8 4.0 52   LegendMM LegendMM LegendMM 100.09     LegendNANA
12:00 15.2 -0.5 34   LegendMM LegendMM LegendMM 100.14     LegendNANA
13:00 13.7 1.4 43   LegendMM LegendMM LegendMM 100.22     LegendNANA
14:00 13.0 3.7 53   LegendMM LegendMM LegendMM 100.31     LegendNANA
15:00 12.6 3.1 52   LegendMM LegendMM LegendMM 100.40     LegendNANA
16:00 12.2 1.2 47   LegendMM LegendMM LegendMM 100.50     LegendNANA
17:00 11.6 0.4 46   LegendMM LegendMM LegendMM 100.61     LegendNANA
18:00 10.4 0.0 48   LegendMM LegendMM LegendMM 100.71     LegendNANA
19:00 9.6 0.9 55   LegendMM LegendMM LegendMM 100.83     LegendNANA
20:00 9.0 1.4 59   LegendMM LegendMM LegendMM 100.91     LegendNANA
21:00 8.0 1.7 64   LegendMM LegendMM LegendMM 100.99     LegendNANA
22:00 7.7 1.3 64   LegendMM LegendMM LegendMM 101.06     LegendNANA
23:00 6.3 1.7 72   LegendMM LegendMM LegendMM 101.09     LegendNANA

Notes on Data Quality.

Legend

  • E = Estimated
  • M = Missing
  • NA = Not Available*
  • [empty] = Indicates an unobserved value
Date modified: